[[{"header":{"parameterUnit":"m.s-1","parameterCategory":1,"la1":30.2991,"la2":30.254,"lo1":-89.0895,"lo2":-89.0444,"dy":0.0017,"dx":0.0017,"nx":28,"ny":28,"refTime":"2023-05-26T21:00:00:Z","depth":0,"parameterNumber":2,"parameterNumberName":"U-component_of_WINDS"},"data":[0,0,0,0,0,0,0,0,0,0,0,0,0,0,0,0,0,0,0,0,0,0,0,0,0,0,0,0,0,0,0,0,0,0,0,0,0,0,0,0,0,0,0,0,0,0,0,0,0,0,0,0,0,0,0,0,0,0,-5.008,-5.0081,0,-5.0197,-5.0198,-5.0199,-5.008,-5.0076,-5.0071,-5.0067,-5.0185,-5.0193,-5.02,0,0,0,0,0,0,0,0,0,0,0,0,0,-4.9753,-4.9759,-5.008,-5.0081,-5.0083,-5.0196,-5.0198,-5.02,-5.0081,-5.0076,-5.007,-5.0065,-5.0183,-5.0192,-5.0201,0,0,0,0,0,0,0,0,0,0,0,0,0,-4.9885,-4.9761,-5.008,-5.0037,-5.0035,-5.0196,-5.0198,-5.02,-5.0082,-5.0075,-5.0068,-5.0062,-5.018,-5.0191,-5.0202,-5.041,0,0,-5.0236,-5.0241,0,0,0,0,0,0,0,0,-4.9877,-4.9897,-5.0042,-5.0041,-5.0038,-5.0117,-5.0126,-5.0271,-5.0084,-5.0064,-5.0067,-5.0059,-5.0168,-5.018,-5.0217,-5.0416,-5.0421,-5.0237,-5.0244,-5.0249,-5.0252,0,0,0,0,0,0,0,-4.9868,-4.9891,-5.0126,-5.0044,-5.0042,-5.0012,-5.0023,-5.0153,-5.0154,-5.0066,-5.0057,-5.0073,-5.0166,-5.0207,-5.0219,-5.0423,-5.0237,-5.0247,-5.0254,-5.0258,-5.0797,-5.0804,0,0,0,0,0,0,-4.9864,-4.9884,-5.0122,-5.0129,-4.9939,-5.0024,-5.0036,-5.0099,-5.0152,-5.0154,-5.0079,-5.0067,-5.0191,-5.0206,-5.0223,-5.0469,-5.0249,-5.0259,-5.0266,-5.0789,-5.0798,-5.0806,0,0,0,0,0,0,-4.9858,-4.9886,-5.0118,-5.0005,-5.0032,-5.0037,-5.0108,-5.0105,-5.0145,-5.0162,-5.0161,-5.012,-5.0186,-5.0207,-5.0364,-5.0471,-5.0264,-5.0274,-5.078,-5.0792,-5.0802,-5.0964,0,0,0,0,0,0,-4.9849,-4.9885,-4.9965,-5.0007,-5.0038,-5.0258,-5.0115,-5.0112,-5.0165,-5.0151,-5.0201,-5.0202,-5.0182,-5.0348,-5.0375,-5.0483,-5.0283,-5.0771,-5.0785,-5.0799,-5.0949,-5.0979,-5.1005,0,0,0,0,0,-4.9837,-5.0005,-4.9969,-4.9999,-5.0138,-5.0265,-5.0282,-5.0256,-5.0174,-5.0254,-5.0264,-5.0201,-5.0456,-5.0365,-5.0395,-5.0507,-5.0764,-5.0781,-5.0798,-5.0936,-5.0973,-5.1004,0,0,0,0,0,0,-4.9975,-5.001,-4.997,-5.0158,-5.0209,-5.0244,-5.0344,-5.0296,-5.0371,-5.0355,-5.0318,-5.0331,-5.0497,-5.0518,-5.0417,-5.0711,-5.0596,-5.062,-5.0691,-5.0727,-5.0754,-5.0745,-5.0293,0,0,0,0,0,-5.0027,-5.0127,-5.0153,-5.0315,-5.0343,-5.034,-5.0394,-5.0369,-5.042,-5.0441,-5.0463,-5.0516,-5.0607,-5.0668,-5.0753,-5.0952,-5.096,-5.1044,-5.1072,-5.1095,-5.1115,-5.122,-5.1257,-5.0862,-5.0862,-5.0862,0,0,-5.0136,-5.0167,-5.0233,-5.0344,-5.038,-5.0484,-5.0359,-5.0474,-5.055,-5.0459,-5.0608,-5.0627,-5.0682,-5.0861,-5.094,-5.0883,-5.1226,-5.1116,-5.1135,-5.1143,-5.1242,-5.1279,-5.1312,-5.0874,-5.0872,-5.087,0,0,-5.0386,-5.0421,-5.0559,-5.0599,-5.0656,-5.0653,-5.0687,-5.0729,-5.0738,-5.0888,-5.0821,-5.0911,-5.107,-5.1112,-5.1154,-5.142,-5.1364,-5.1449,-5.1596,-5.1698,-5.1729,-5.1757,-5.185,-5.1884,-5.147,-5.147,-5.147,0,-5.0513,-5.0668,-5.0637,-5.0757,-5.0807,-5.0729,-5.0868,-5.0908,-5.0991,-5.1027,-5.0962,-5.1159,-5.1191,-5.1377,-5.1442,-5.148,-5.1516,-5.1442,-5.1728,-5.1755,-5.178,-5.1868,-5.1904,-5.148,-5.1479,-5.1478,-5.1477,0,-5.0821,-5.0929,-5.1033,-5.1115,-5.1177,-5.1307,-5.1294,-5.1361,-5.1331,-5.1334,-5.1487,-5.1523,-5.1613,-5.1656,-5.1628,-5.1839,-5.1801,-5.1733,-5.1616,-5.1828,-5.191,-5.1944,-5.1494,-5.149,-5.1488,-5.1485,0,0,-5.116,-5.1223,-5.1262,-5.1297,-5.1355,-5.1437,-5.1563,-5.1651,-5.1709,-5.1768,-5.1872,-5.2008,-5.1945,-5.1993,-5.1969,-5.2059,-5.2266,-5.1979,-5.198,-5.203,-5.2499,-5.2549,-5.2589,-5.223,-5.2236,-5.2241,-5.2494,0,-5.141,-5.1628,-5.1604,-5.1811,-5.191,-5.1837,-5.1946,-5.1993,-5.2,-5.2084,-5.2091,-5.2187,-5.2097,-5.2126,-5.2212,-5.2223,-5.2359,-5.2204,-5.2324,-5.2329,-5.2311,-5.2632,-5.2685,-5.2922,-5.2526,-5.2531,-5.2535,0,-5.1732,-5.1802,-5.202,-5.2061,-5.2102,-5.2201,-5.2279,-5.2361,-5.2412,-5.2411,-5.2465,-5.2425,-5.255,-5.2432,-5.2603,-5.2498,-5.2546,-5.2559,-5.2567,-5.2576,-5.2444,-5.2648,-5.2997,-5.3032,-5.2586,-5.2582,-5.2578,0,-5.1955,-5.2105,-5.2254,-5.2287,-5.234,-5.2411,-5.2436,-5.248,-5.2535,-5.2604,-5.2639,-5.2722,-5.2767,-5.2832,-5.2815,-5.2731,-5.299,-5.2871,-5.2991,-5.2992,-5.3047,-5.3044,-5.3407,-5.3081,-5.3081,-5.308,-5.3079,0,-5.2236,-5.2371,-5.2355,-5.2446,-5.2596,-5.2566,-5.2715,-5.2731,-5.2771,-5.2864,-5.2807,-5.2895,-5.2868,-5.2955,-5.2943,-5.3086,-5.3107,-5.3108,-5.3103,-5.3113,-5.3113,-5.3142,-5.3125,-5.309,-5.3087,-5.3086,-5.3084,0,-5.251,-5.2505,-5.2662,-5.2699,-5.2712,-5.282,-5.2852,-5.2937,-5.2939,-5.3058,-5.3084,-5.3087,-5.3186,-5.3176,-5.3288,-5.3279,-5.3456,-5.3432,-5.3439,-5.3433,-5.3553,-5.3541,-5.3946,-5.3997,-5.3641,-5.3644,-5.3647,0,-5.2689,-5.2791,-5.284,-5.2898,-5.2928,-5.3023,-5.3078,-5.3053,-5.3113,-5.318,-5.3257,-5.3352,-5.3425,-5.3587,-5.3599,-5.3684,-5.366,-5.3797,-5.3673,-5.3679,-5.3661,-5.3654,-5.3663,-5.3821,-5.3825,-5.3828,-5.3831,0,-5.3006,-5.2998,-5.308,-5.3162,-5.323,-5.3293,-5.335,-5.3401,-5.3382,-5.3453,-5.3553,-5.3611,-5.3725,-5.3818,-5.3899,-5.3924,-5.3875,-5.387,-5.3902,-5.3912,-5.3911,-5.3911,-5.3504,-5.386,-5.3857,-5.3855,-5.3854,-5.3852,-5.3236,-5.3323,-5.3371,-5.3464,-5.3505,-5.356,-5.3642,-5.3654,-5.3738,-5.3829,-5.3809,-5.3923,-5.3971,-5.4074,-5.4107,-5.4195,-5.4146,-5.4192,-5.4204,-5.4215,-5.4229,-5.3899,-5.421,-5.4209,-5.4208,-5.4208,-5.4207,0,-5.3549,-5.3576,-5.3662,-5.3744,-5.3817,-5.3765,-5.3826,-5.3891,-5.3991,-5.4041,-5.4115,-5.423,-5.4321,-5.4341,-5.4428,-5.4494,-5.4474,-5.4518,-5.4511,-5.4518,-5.4269,-5.4232,-5.4533,-5.4533,-5.4533,-5.4532,-5.4532,-5.4532,-5.372,-5.3864,-5.3862,-5.4026,-5.4051,-5.4162,-5.4201,-5.4251,-5.429,-5.4422,-5.4497,-5.451,-5.4547,-5.4636,-5.4717,-5.472,-5.4754,-5.4807,-5.4802,-5.4568,-5.4535,-5.4504,-5.4469,-5.4815,-5.4816,-5.5043,-5.5045,-5.5046]},{"header":{"parameterUnit":"m.s-1","parameterCategory":1,"la1":30.2991,"la2":30.254,"lo1":-89.0895,"lo2":-89.0444,"dy":0.0017,"dx":0.0017,"nx":28,"ny":28,"refTime":"2023-05-26T21:00:00:Z","depth":0,"parameterNumber":3,"parameterNumberName":"V-component_of_WINDS"},"data":[0,0,0,0,0,0,0,0,0,0,0,0,0,0,0,0,0,0,0,0,0,0,0,0,0,0,0,0,0,0,0,0,0,0,0,0,0,0,0,0,0,0,0,0,0,0,0,0,0,0,0,0,0,0,0,0,0,0,-1.9002,-1.9003,0,-1.9078,-1.9078,-1.9079,-1.9079,-1.9078,-1.9077,-1.9076,-1.915,-1.9153,-1.9156,0,0,0,0,0,0,0,0,0,0,0,0,0,-1.8853,-1.8856,-1.9002,-1.9003,-1.9004,-1.9077,-1.9078,-1.9079,-1.9079,-1.9078,-1.9077,-1.9076,-1.9149,-1.9153,-1.9156,0,0,0,0,0,0,0,0,0,0,0,0,0,-1.8922,-1.8857,-1.9002,-1.9013,-1.9014,-1.9077,-1.9078,-1.908,-1.9079,-1.9078,-1.9076,-1.9075,-1.9148,-1.9152,-1.9157,-1.9213,0,0,-1.917,-1.9172,0,0,0,0,0,0,0,0,-1.8918,-1.8927,-1.901,-1.9012,-1.9014,-1.9067,-1.9053,-1.9124,-1.908,-1.9055,-1.9076,-1.9074,-1.9124,-1.913,-1.9147,-1.9216,-1.9219,-1.917,-1.9173,-1.9175,-1.9176,0,0,0,0,0,0,0,-1.8913,-1.8924,-1.9032,-1.9011,-1.9014,-1.9012,-1.902,-1.9067,-1.9096,-1.9057,-1.9057,-1.9066,-1.9124,-1.9143,-1.9149,-1.922,-1.917,-1.9174,-1.9177,-1.9178,-1.9337,-1.9339,0,0,0,0,0,0,-1.8907,-1.892,-1.9029,-1.9034,-1.8962,-1.9016,-1.9025,-1.9052,-1.9096,-1.9101,-1.9067,-1.9066,-1.9136,-1.9144,-1.9151,-1.9219,-1.9175,-1.9179,-1.9181,-1.9335,-1.9337,-1.9339,0,0,0,0,0,0,-1.8904,-1.8917,-1.9026,-1.8977,-1.8991,-1.902,-1.905,-1.9054,-1.9073,-1.9104,-1.9109,-1.9081,-1.9135,-1.9145,-1.9197,-1.9222,-1.9181,-1.9185,-1.9333,-1.9336,-1.9338,-1.9355,0,0,0,0,0,0,-1.8899,-1.8915,-1.8938,-1.8978,-1.8994,-1.9072,-1.9051,-1.9056,-1.908,-1.9079,-1.9118,-1.9123,-1.9135,-1.9191,-1.9201,-1.9227,-1.9188,-1.9331,-1.9335,-1.9337,-1.9353,-1.9358,-1.9362,0,0,0,0,0,-1.8894,-1.894,-1.8939,-1.8953,-1.9023,-1.9074,-1.9083,-1.9097,-1.9082,-1.9105,-1.9124,-1.9122,-1.9217,-1.9196,-1.9208,-1.9235,-1.933,-1.9334,-1.9337,-1.935,-1.9357,-1.9362,0,0,0,0,0,0,-1.8902,-1.8945,-1.8945,-1.9006,-1.9036,-1.9074,-1.9103,-1.9103,-1.9138,-1.9135,-1.9149,-1.9158,-1.921,-1.9227,-1.9203,-1.9291,-1.9272,-1.9278,-1.9277,-1.9284,-1.9289,-1.9283,-1.9192,0,0,0,0,0,-1.891,-1.8949,-1.8985,-1.9034,-1.905,-1.9073,-1.9096,-1.9104,-1.9136,-1.9148,-1.9172,-1.9202,-1.9238,-1.9262,-1.9297,-1.9355,-1.9362,-1.9379,-1.9384,-1.9388,-1.9393,-1.9423,-1.9431,-1.9351,-1.9351,-1.9351,0,0,-1.8929,-1.8957,-1.8981,-1.9036,-1.9061,-1.9099,-1.9084,-1.9126,-1.9154,-1.9154,-1.9205,-1.9223,-1.9257,-1.9311,-1.9337,-1.9328,-1.9417,-1.9393,-1.9395,-1.9399,-1.9428,-1.9435,-1.9442,-1.9354,-1.9353,-1.9353,0,0,-1.8982,-1.9008,-1.9052,-1.9076,-1.9114,-1.9129,-1.9139,-1.9177,-1.9189,-1.924,-1.9241,-1.9273,-1.9336,-1.936,-1.9381,-1.9441,-1.9439,-1.9451,-1.9477,-1.9506,-1.9513,-1.9518,-1.9539,-1.9546,-1.9457,-1.9457,-1.9457,0,-1.9,-1.9059,-1.9074,-1.9115,-1.9139,-1.9141,-1.9184,-1.9207,-1.9254,-1.9269,-1.9259,-1.9337,-1.936,-1.942,-1.9434,-1.9451,-1.9462,-1.9447,-1.9511,-1.9517,-1.9522,-1.9542,-1.9549,-1.9458,-1.9458,-1.9458,-1.9457,0,-1.9079,-1.9119,-1.915,-1.9196,-1.9223,-1.9265,-1.9284,-1.9309,-1.9314,-1.933,-1.938,-1.9408,-1.9448,-1.9463,-1.9468,-1.9522,-1.9516,-1.9508,-1.9489,-1.9531,-1.9549,-1.9557,-1.946,-1.9459,-1.9459,-1.9459,0,0,-1.914,-1.9192,-1.9203,-1.9223,-1.9264,-1.9295,-1.9336,-1.9376,-1.9397,-1.9429,-1.9462,-1.9515,-1.9507,-1.953,-1.9538,-1.9564,-1.9608,-1.9552,-1.9553,-1.9561,-1.9668,-1.9673,-1.9682,-1.9607,-1.9608,-1.9609,-1.9665,0,-1.9197,-1.9272,-1.9285,-1.935,-1.9387,-1.9389,-1.9424,-1.9452,-1.9467,-1.9499,-1.9515,-1.9552,-1.954,-1.9554,-1.9579,-1.9597,-1.9629,-1.9593,-1.9637,-1.9638,-1.9628,-1.9692,-1.9698,-1.9749,-1.9672,-1.9673,-1.9674,0,-1.9274,-1.9308,-1.9377,-1.9411,-1.9427,-1.9459,-1.9496,-1.9527,-1.9558,-1.9567,-1.9592,-1.9596,-1.9637,-1.9616,-1.9671,-1.9646,-1.9665,-1.9676,-1.9678,-1.9683,-1.9659,-1.9697,-1.9766,-1.9773,-1.9686,-1.9685,-1.9684,0,-1.9311,-1.9374,-1.9423,-1.944,-1.9481,-1.9504,-1.9522,-1.9551,-1.9574,-1.9605,-1.962,-1.9655,-1.9675,-1.9701,-1.9714,-1.9698,-1.9768,-1.9749,-1.9776,-1.9775,-1.9791,-1.979,-1.9863,-1.9803,-1.9803,-1.9803,-1.9802,0,-1.9373,-1.9415,-1.944,-1.947,-1.9516,-1.953,-1.9574,-1.9591,-1.9617,-1.9649,-1.9652,-1.9682,-1.9697,-1.9728,-1.9738,-1.9782,-1.9791,-1.9798,-1.98,-1.9798,-1.9797,-1.981,-1.9807,-1.9805,-1.9804,-1.9804,-1.9804,0,-1.9423,-1.9441,-1.9494,-1.9529,-1.9539,-1.9571,-1.96,-1.9628,-1.9642,-1.9683,-1.9693,-1.9715,-1.9752,-1.9767,-1.9812,-1.9819,-1.9869,-1.9868,-1.9859,-1.9859,-1.9885,-1.9882,-1.9969,-1.9981,-1.9914,-1.9914,-1.9915,0,-1.9461,-1.9494,-1.9532,-1.9554,-1.9573,-1.9608,-1.9632,-1.9645,-1.9669,-1.9705,-1.9729,-1.9766,-1.9796,-1.9854,-1.9874,-1.9908,-1.9908,-1.9936,-1.9913,-1.9909,-1.9907,-1.9905,-1.9908,-1.994,-1.9941,-1.9941,-1.9942,0,-1.9528,-1.9535,-1.9569,-1.9606,-1.9634,-1.9663,-1.9692,-1.9709,-1.9727,-1.9753,-1.9791,-1.9815,-1.986,-1.9896,-1.9931,-1.9948,-1.9947,-1.9949,-1.9957,-1.9955,-1.9947,-1.9951,-1.987,-1.9947,-1.9946,-1.9946,-1.9946,-1.9945,-1.9573,-1.9601,-1.9632,-1.9669,-1.9692,-1.9718,-1.9746,-1.9764,-1.9796,-1.9836,-1.9841,-1.9881,-1.9909,-1.9955,-1.9973,-2.0004,-1.9997,-2.0008,-2.0011,-2.0014,-2.0015,-1.9942,-2.001,-2.001,-2.001,-2.001,-2.001,0,-1.9639,-1.9659,-1.9693,-1.9733,-1.9761,-1.9759,-1.979,-1.9814,-1.985,-1.9876,-1.9906,-1.9948,-1.9983,-2.0004,-2.0038,-2.0059,-2.0059,-2.0067,-2.0066,-2.0069,-2.002,-2.001,-2.0066,-2.0066,-2.0066,-2.0066,-2.0066,-2.0066,-1.9677,-1.9724,-1.9734,-1.9792,-1.9811,-1.9851,-1.9869,-1.9892,-1.9913,-1.9961,-1.999,-2.0004,-2.0028,-2.0064,-2.0094,-2.01,-2.0112,-2.012,-2.0125,-2.0079,-2.0073,-2.0067,-2.0057,-2.0123,-2.0123,-2.0171,-2.0172,-2.0172]}]]